Theta_e
308 308 308 308 308 308 308 308 308 308 308 308 308 308 308 308 308 308 309 309 308 308 309 309 308 309 310 310 310 310 310 309 310 308 311 315 309 311 310 308 308 310 312 313 314 314 315 314 313 312 313 312 314 315 313 316 316 316 320 321 318 316 315 317 318 316 314 314 313 313 311 313 312 317 336 351 354 353 354 355 351 352 352 350 349 347 344 343
307 307 307 307 308 308 308 308 308 307 308 308 308 308 308 308 308 308 309 308 308 308 308 309 308 309 309 309 309 309 310 309 309 311 315 312 312 314 312 308 309 311 311 311 313 313 315 315 312 311 314 313 312 313 314 315 316 319 319 318 318 317 316 315 316 314 312 312 312 313 311 312 314 310 327 352 358 356 357 354 350 353 352 350 348 345 344 344
306 306 306 307 307 307 307 307 307 307 307 308 308 308 308 308 308 308 309 309 309 308 308 308 309 308 308 308 308 310 310 308 313 319 318 314 313 315 312 309 310 312 311 310 311 311 313 313 310 311 316 316 314 314 315 315 316 319 318 318 318 316 315 314 313 313 313 312 312 313 311 313 313 311 331 353 357 358 356 353 353 355 353 351 348 344 345 345
306 306 306 306 307 307 307 307 307 307 307 307 307 308 307 307 308 308 308 309 309 308 308 309 308 308 308 307 308 310 309 311 317 316 315 314 313 314 313 309 310 311 310 310 310 310 310 310 310 313 317 317 315 315 316 317 316 316 318 320 317 313 314 315 313 313 314 312 311 312 312 313 311 319 346 355 352 359 355 350 352 354 353 351 349 345 345 345
306 306 306 306 306 306 307 307 307 307 307 306 307 307 307 306 307 308 308 308 308 308 308 308 309 308 307 307 308 310 310 311 314 314 312 311 312 315 313 310 311 310 311 310 309 309 309 309 312 314 316 317 316 315 317 318 315 315 318 318 316 313 314 314 313 314 314 313 311 312 313 313 312 319 345 353 349 354 353 349 349 348 350 350 348 345 345 346
306 306 306 306 306 306 307 307 307 307 307 306 307 307 307 306 306 307 307 307 307 308 308 308 308 308 307 307 308 309 308 306 309 309 308 310 313 314 312 312 311 311 312 310 308 309 309 310 312 315 316 317 316 317 318 316 314 316 320 319 317 314 314 313 314 314 313 312 311 313 311 311 312 310 329 351 350 347 350 350 349 348 348 349 348 346 346 345
305 305 305 306 306 306 306 306 307 307 307 306 306 306 306 307 306 307 306 306 307 307 308 307 308 308 307 307 311 312 310 310 307 305 310 314 315 312 312 315 314 313 312 309 308 308 310 310 312 316 316 315 316 317 317 316 315 316 319 319 317 315 315 314 314 314 312 311 310 311 310 311 312 309 325 346 350 353 355 352 349 348 348 349 348 344 341 338
304 305 305 305 305 305 305 306 306 307 307 306 306 306 306 306 307 307 306 306 307 307 307 307 308 308 307 308 313 314 310 309 308 310 316 317 314 311 312 315 314 314 312 309 308 308 310 311 311 313 314 314 315 316 316 315 316 316 317 316 315 316 316 315 314 313 312 311 310 310 311 312 310 311 319 329 348 358 354 349 350 349 348 349 345 340 337 335
304 305 305 305 305 305 305 305 306 306 306 305 306 306 306 306 306 306 306 306 307 307 307 308 308 307 308 309 309 306 305 307 311 315 317 317 313 310 312 314 314 314 312 310 308 307 310 311 311 312 313 314 313 314 315 315 317 318 318 316 316 316 315 315 313 313 313 310 310 309 312 312 310 316 320 331 352 354 349 349 350 349 349 348 341 337 335 334
305 304 304 305 305 306 306 306 305 305 306 305 306 306 306 306 305 306 306 306 306 306 307 307 308 307 307 310 307 303 306 309 312 314 314 316 312 310 313 314 315 315 313 311 308 307 309 310 311 311 312 314 312 314 315 315 317 317 317 316 316 315 313 312 311 313 311 308 311 309 312 311 311 320 323 339 351 348 349 350 348 349 349 343 337 335 335 333
305 304 304 305 305 305 306 306 306 305 306 306 306 305 305 305 304 304 304 305 305 305 307 307 308 308 307 310 308 305 306 308 312 312 311 312 310 310 313 314 315 315 313 310 307 307 308 308 309 311 313 313 312 312 314 314 314 314 313 312 313 312 311 311 310 312 310 310 313 310 312 311 310 315 315 336 348 348 350 350 348 350 345 338 337 336 336 334
304 304 304 304 304 304 305 305 305 305 305 305 306 304 303 304 302 301 303 303 303 304 307 308 307 308 308 310 310 307 306 309 312 311 310 309 307 309 310 312 313 314 313 311 308 307 307 308 310 313 314 313 314 312 311 312 310 311 311 310 313 313 312 313 312 312 310 312 315 312 313 313 314 312 315 339 350 348 349 351 350 349 342 338 339 338 337 334
304 304 304 304 304 304 304 304 304 305 305 305 305 304 302 302 300 300 302 302 302 304 306 308 307 307 308 311 310 306 306 309 309 308 310 308 307 309 310 312 313 312 313 311 308 308 307 309 311 314 313 314 316 313 311 311 309 311 310 310 313 314 314 313 311 310 309 311 313 312 312 317 324 313 318 342 351 348 350 351 351 348 341 339 340 338 338 335
304 304 304 304 304 304 304 304 304 304 304 304 304 303 301 300 299 299 302 302 302 304 307 308 306 307 310 312 307 305 307 308 309 308 309 309 310 311 311 311 312 312 313 311 308 308 307 308 310 312 312 313 315 312 312 312 312 313 310 311 312 312 317 317 313 312 311 312 312 312 312 316 322 312 322 345 349 348 351 350 351 347 342 340 340 338 337 335
304 303 302 303 304 304 304 304 304 304 305 304 303 302 299 299 300 301 303 302 302 306 308 307 306 308 312 313 308 308 311 311 312 311 310 312 311 312 312 311 312 312 312 311 309 308 307 308 310 312 312 312 312 311 314 314 316 316 310 314 316 311 316 318 314 314 312 312 311 311 313 316 317 312 327 348 348 348 350 349 351 346 343 342 340 339 337 336
304 303 302 303 303 304 304 304 304 304 304 303 301 300 299 301 304 305 304 302 304 308 308 308 307 309 314 314 310 311 313 312 313 314 314 313 312 313 312 311 310 309 309 309 308 308 307 308 310 312 313 311 312 311 313 316 320 321 313 314 319 313 314 316 313 313 311 312 312 311 314 317 317 310 323 345 348 347 348 349 350 345 343 343 341 340 338 337
304 303 303 303 304 304 304 304 304 304 304 302 300 298 301 307 308 305 305 306 308 308 308 310 308 308 311 310 311 312 313 314 314 316 315 314 314 313 311 311 309 307 307 307 307 307 307 309 310 315 316 313 315 315 315 316 318 323 317 314 318 315 314 314 314 313 310 311 312 312 313 315 318 312 319 342 349 347 348 350 350 344 343 343 342 341 339 339
303 303 303 303 303 304 304 304 304 304 304 302 299 299 304 310 308 306 307 308 309 308 309 311 308 309 310 310 311 313 312 313 314 314 314 315 316 313 312 312 310 309 310 310 310 308 309 311 312 317 318 312 313 315 316 320 319 318 315 314 319 317 314 314 314 314 311 312 312 312 313 315 318 314 317 337 347 346 346 349 348 344 343 343 342 341 340 340
303 303 303 303 303 303 304 304 304 304 303 301 298 302 308 310 308 308 308 309 312 313 314 314 311 308 310 312 311 312 310 311 312 312 313 316 315 313 312 311 313 314 314 315 313 311 312 313 312 315 315 313 315 314 315 320 317 314 314 317 320 315 313 312 312 314 311 311 314 313 314 317 317 315 316 330 343 346 345 347 347 343 343 342 341 340 339 341
302 302 302 302 303 303 303 304 303 303 302 300 299 304 309 310 310 310 309 311 316 316 315 316 314 312 312 312 311 311 310 311 313 313 314 315 313 312 312 313 314 315 316 320 316 313 314 316 315 315 315 319 322 319 316 316 313 311 314 315 315 313 311 310 311 314 310 311 319 319 316 317 317 317 315 323 338 343 344 348 346 343 343 342 341 340 339 341
302 302 302 302 303 303 303 303 303 302 301 301 302 305 307 306 308 308 307 310 312 311 312 312 312 313 312 311 311 310 312 313 312 312 313 314 313 312 314 314 316 318 318 319 317 311 313 316 316 316 320 327 331 326 317 314 312 311 313 312 312 312 311 309 310 312 311 313 322 320 315 318 319 317 315 322 338 343 343 347 347 343 343 342 342 341 339 340
302 302 302 302 303 303 303 302 302 301 300 302 302 305 306 303 304 305 305 309 308 306 309 309 309 311 310 310 310 310 312 313 312 311 311 312 314 313 314 315 318 322 318 315 316 313 313 316 314 316 324 325 326 326 318 314 314 313 313 313 313 313 312 313 313 315 314 314 321 321 315 319 320 317 317 322 335 341 340 344 345 343 342 341 342 341 339 339
302 302 302 302 303 303 303 301 301 302 302 303 302 302 304 303 305 306 305 309 310 307 308 309 310 311 310 309 310 311 312 313 311 311 311 312 313 313 314 315 317 319 316 315 318 317 317 317 314 317 321 317 316 321 319 314 314 316 315 313 314 314 313 315 318 319 318 316 319 318 316 321 324 327 332 330 332 337 339 342 342 341 342 341 341 340 340 339
302 302 302 302 302 303 302 300 303 304 302 301 301 302 302 303 307 307 307 311 313 311 308 308 309 311 310 309 309 312 312 311 311 311 312 312 312 312 313 315 316 315 315 317 318 318 317 315 314 316 316 314 313 316 316 313 315 321 320 314 314 314 313 314 316 318 321 323 320 313 318 328 327 333 343 336 332 336 339 342 342 340 340 340 340 340 339 339
302 302 302 301 302 303 300 301 303 302 301 301 302 303 303 303 306 307 309 313 314 313 310 307 309 310 310 309 309 312 313 312 312 312 311 311 312 312 312 313 315 314 314 315 315 316 316 314 315 316 314 313 313 315 318 316 316 320 321 317 314 315 315 314 314 315 320 327 322 312 320 331 328 331 338 334 333 336 338 341 342 340 340 339 340 340 338 337
302 302 301 301 302 301 300 304 302 299 302 302 302 304 303 303 307 307 311 317 318 316 313 309 309 311 310 310 311 312 312 312 313 311 311 311 311 313 313 312 313 314 313 314 314 314 314 314 314 315 317 315 313 315 318 316 314 315 321 321 316 313 315 315 314 315 320 325 319 314 319 325 328 333 334 332 335 336 336 339 341 340 339 339 339 338 337 336
302 302 301 301 302 301 304 307 302 301 306 305 303 304 303 305 307 306 310 318 319 316 314 309 308 310 310 311 311 311 309 310 312 312 312 312 311 312 314 314 313 313 312 313 317 315 313 313 313 314 316 315 314 314 315 314 313 316 324 325 317 313 315 315 314 316 323 324 320 321 321 318 324 330 330 333 337 336 336 337 339 340 338 338 338 336 335 334
302 302 301 301 302 301 303 304 301 303 306 304 302 302 305 307 308 310 313 312 310 312 315 311 309 309 310 311 311 310 310 310 312 313 312 311 312 313 314 315 315 313 312 314 319 317 313 313 314 313 314 313 314 315 315 313 312 318 325 322 316 315 316 316 316 319 321 318 318 323 319 316 328 331 327 333 338 338 338 336 336 338 337 337 336 335 335 333
301 302 301 301 301 302 301 302 302 303 302 301 302 303 306 306 308 316 316 311 309 311 313 311 308 309 311 311 311 310 311 312 312 312 311 311 311 313 313 314 314 313 310 313 318 316 313 315 314 313 313 313 314 316 316 313 312 317 321 317 315 319 320 317 319 319 317 315 315 321 319 315 328 336 330 334 340 338 338 336 336 337 336 336 335 334 334 332
301 301 301 301 301 302 301 301 302 301 301 301 303 305 306 308 315 318 313 311 312 311 309 310 308 307 310 311 313 312 311 312 313 311 311 312 312 312 313 312 314 317 313 311 314 314 313 314 314 313 314 314 314 315 313 313 313 314 316 315 314 320 323 324 328 323 315 318 317 317 321 317 322 335 336 336 338 335 336 336 336 336 336 334 334 334 334 332
301 301 301 301 302 302 302 303 302 302 303 301 304 306 305 310 319 318 314 311 311 310 309 308 306 306 307 308 312 313 311 311 312 312 312 313 313 313 314 313 315 318 316 312 313 314 313 311 313 316 316 314 311 312 311 310 311 313 317 317 317 321 321 323 330 323 315 322 323 318 320 319 320 328 330 331 332 332 335 337 335 335 336 334 334 334 333 332
301 301 301 301 302 302 303 304 303 303 303 302 304 309 311 311 312 315 317 313 309 310 308 306 306 305 303 306 311 313 311 312 313 313 313 313 315 314 314 318 318 316 318 319 318 317 316 314 313 315 317 313 310 313 313 310 310 313 318 318 318 321 319 320 326 323 319 323 323 321 320 319 324 328 328 330 331 329 331 333 334 334 334 334 333 333 332 331
301 301 301 302 303 303 304 303 302 302 303 303 306 313 316 312 310 313 314 312 309 308 306 306 305 304 304 308 313 312 310 312 314 313 313 313 315 314 313 318 319 317 321 321 317 316 319 319 314 311 314 313 312 314 314 314 313 312 316 318 318 320 319 323 326 322 321 321 318 319 317 318 328 329 327 330 329 327 328 330 334 334 333 334 332 330 330 329
301 301 301 303 305 306 306 304 303 304 303 304 309 311 309 309 312 314 311 311 310 305 305 305 303 305 307 309 312 313 312 314 314 313 314 314 315 316 315 314 315 318 322 319 315 317 320 321 318 313 313 313 312 312 314 317 315 311 314 316 318 325 323 323 327 323 319 321 322 320 316 320 333 330 327 330 329 328 329 331 335 334 333 334 331 328 329 330
301 301 303 306 306 308 308 305 305 305 304 308 311 308 307 309 309 311 310 309 308 305 305 304 303 308 314 313 312 311 313 316 316 315 315 316 317 320 318 314 314 317 320 319 318 316 315 318 321 316 310 311 312 313 314 315 314 312 314 314 314 322 325 322 324 324 323 324 323 323 323 327 333 329 326 329 329 329 330 330 333 333 332 333 330 328 329 331
301 304 307 307 308 309 307 306 306 305 306 312 311 305 310 311 305 307 309 306 305 304 305 306 307 309 314 315 312 309 312 319 321 319 317 316 316 319 318 315 314 315 316 322 322 316 313 318 321 316 312 313 313 314 314 313 317 315 312 316 316 316 322 324 320 319 323 323 319 325 335 336 334 329 325 327 330 329 330 330 330 331 331 331 331 330 331 333
302 307 311 309 309 309 304 305 306 304 307 313 311 308 312 310 303 307 309 305 305 305 304 308 311 309 308 311 313 309 310 319 323 319 318 318 317 319 322 318 315 313 314 318 321 318 316 318 321 316 313 315 312 312 313 311 316 319 316 318 316 312 319 327 327 326 325 323 323 329 339 341 337 333 327 328 330 329 330 332 330 330 331 331 332 331 331 332
302 308 313 312 311 307 305 307 306 306 310 313 314 314 311 306 304 307 306 305 307 306 304 307 310 309 306 308 313 312 311 318 323 322 322 321 319 320 325 323 317 316 315 312 316 319 314 316 325 319 311 316 316 312 314 313 312 318 321 318 316 319 321 321 325 329 323 321 327 328 329 334 336 333 329 329 330 328 330 332 331 332 331 331 331 329 329 330
304 311 315 313 310 308 309 310 308 311 311 306 310 312 306 306 309 309 307 306 306 306 307 307 307 309 309 308 311 312 314 318 323 324 322 319 318 319 323 323 319 318 317 311 315 321 316 314 325 322 310 313 319 317 320 321 312 312 316 314 318 329 327 319 322 326 323 324 328 328 330 334 332 328 327 328 327 326 330 332 332 332 331 329 329 328 328 328
307 317 317 311 310 310 311 311 313 318 312 304 309 311 306 308 312 310 310 308 307 309 310 309 306 308 311 310 309 310 314 322 325 324 321 320 320 319 319 322 321 319 319 317 319 324 319 313 321 329 318 314 320 320 321 324 317 313 316 316 318 322 320 319 320 320 325 331 329 330 337 337 329 326 327 327 326 326 328 330 330 330 329 328 327 328 328 327
310 319 316 311 311 310 312 315 316 317 314 310 312 312 310 312 312 312 313 310 310 311 311 310 309 310 311 310 311 310 312 321 325 322 321 321 321 320 319 320 321 319 320 321 323 324 322 318 322 329 324 320 323 322 317 318 317 317 320 322 323 322 320 322 322 319 324 331 329 333 342 337 327 326 327 326 326 327 326 327 327 327 327 325 325 327 326 325
316 321 313 310 311 309 313 318 314 311 315 316 314 311 312 313 312 312 313 311 311 311 309 308 309 310 310 309 311 311 310 315 320 320 321 321 321 320 319 319 322 324 325 324 321 323 327 327 325 324 323 322 321 318 315 315 317 318 321 323 325 327 326 328 328 324 322 322 323 330 340 335 326 326 327 327 327 326 325 325 325 325 324 324 325 325 324 324
320 318 311 310 311 310 313 318 315 313 317 316 313 311 310 312 312 312 312 312 312 310 309 309 309 309 310 308 309 311 310 313 317 318 320 322 320 318 318 320 322 322 326 326 322 324 327 327 324 326 331 331 326 322 318 317 321 323 324 325 323 324 329 333 333 332 330 327 326 331 336 333 327 326 326 326 326 325 325 324 324 324 323 323 325 325 324 324
317 313 312 311 310 311 314 315 314 314 316 316 314 314 311 310 312 311 311 312 312 311 310 311 310 308 309 310 309 311 312 314 316 315 317 319 319 317 319 321 320 321 325 326 324 324 323 323 323 324 327 329 329 329 326 324 329 327 325 327 323 320 325 327 326 330 332 327 326 331 335 332 328 326 325 324 325 326 325 323 321 322 321 320 320 320 319 319
313 312 314 312 308 311 314 313 313 313 315 315 314 313 312 311 311 310 310 313 312 311 310 311 311 309 311 313 313 313 313 314 317 317 316 318 318 317 318 320 323 327 327 326 327 327 325 324 324 325 325 326 329 330 326 324 327 325 324 327 323 320 322 320 322 328 325 320 323 333 335 330 327 326 324 324 325 324 322 318 317 316 316 315 314 314 313 313
315 315 313 311 309 312 312 311 313 314 314 314 313 311 311 312 312 309 309 311 311 309 309 310 311 310 311 315 318 317 314 314 317 317 317 318 317 317 318 320 325 328 327 327 328 330 327 321 321 325 327 326 327 324 319 318 324 326 327 326 321 319 322 324 325 326 324 323 326 330 329 328 330 328 326 324 322 320 317 314 314 313 312 312 311 310 310 310
315 314 312 310 310 313 313 311 313 313 311 311 311 309 310 312 312 310 310 311 310 309 310 310 309 309 310 313 318 318 315 316 317 315 315 315 317 319 317 317 322 325 325 325 325 330 330 322 319 321 321 319 319 319 317 319 321 321 321 321 318 317 323 331 328 321 322 329 328 324 325 330 330 326 323 321 317 314 313 312 311 311 310 311 310 309 309 308
309 310 310 308 307 312 312 309 312 314 311 310 310 310 311 312 311 311 311 312 311 309 310 311 310 308 307 309 313 314 314 316 315 314 313 312 316 320 319 317 320 323 326 326 324 329 331 323 318 319 319 318 318 318 318 319 317 314 314 316 316 317 322 330 327 318 322 331 331 326 327 327 323 319 317 315 312 311 310 309 309 309 309 309 309 308 308 308
308 309 308 306 307 311 310 307 312 315 312 310 311 310 312 313 311 310 310 311 314 312 308 309 310 308 307 310 314 312 311 313 313 313 312 309 313 318 318 319 320 320 326 329 323 324 327 323 319 319 319 318 318 318 318 318 317 314 312 312 315 317 319 321 321 318 322 328 328 324 322 318 315 314 312 311 309 308 308 307 307 308 308 308 307 307 307 307
309 310 310 311 312 311 311 310 312 315 312 310 310 309 311 313 310 310 310 310 313 312 309 308 308 308 308 311 314 310 306 308 310 310 309 308 312 315 314 318 319 314 322 329 323 322 325 321 318 320 322 320 317 318 319 319 319 318 315 312 314 318 319 320 320 320 321 324 322 320 319 315 312 312 310 309 308 307 308 307 307 307 307 307 307 307 306 306
305 305 310 317 313 307 310 311 310 314 312 309 309 310 311 312 309 309 311 311 311 310 309 308 308 309 310 311 310 306 304 306 307 309 311 309 309 310 310 313 313 310 319 327 324 324 326 319 315 320 324 321 317 317 320 321 321 322 319 314 313 316 318 318 317 316 319 322 321 321 321 316 312 310 309 308 308 307 308 307 307 307 307 307 306 306 306 306
305 304 308 315 311 304 307 309 308 312 310 306 308 311 311 311 309 308 311 311 311 309 307 307 307 307 309 310 307 304 303 304 304 307 311 309 308 308 306 307 308 307 315 324 325 323 324 320 318 321 324 321 317 317 320 322 324 325 318 312 312 314 315 316 315 314 316 319 320 322 320 314 310 309 309 308 307 307 307 307 307 307 306 306 306 305 305 305
Wind_Speed
14 14 14 14 15 15 15 15 15 15 14 14 14 14 14 14 14 14 14 13 14 13 13 14 13 14 14 15 16 16 19 21 21 14 10 13 13 10 9 6 7 18 16 15 19 16 10 7 7 7 7 4 1 2 2 1 2 3 3 3 3 4 4 5 6 5 3 4 7 9 8 6 8 7 3 2 6 4 3 5 3 4 3 2 10 20 26 27
13 14 14 14 15 15 15 15 15 15 15 15 15 15 15 14 14 14 14 14 14 14 14 14 14 14 14 15 15 16 20 20 18 16 12 6 9 7 6 7 11 20 18 16 19 17 11 5 6 7 5 2 1 1 2 1 2 2 3 2 5 5 4 5 5 3 3 5 9 10 6 6 8 6 5 1 2 4 4 3 3 5 4 6 13 21 24 24
13 14 14 14 15 15 15 15 15 15 15 15 15 15 15 14 14 14 14 14 14 14 14 14 13 14 14 15 14 16 19 16 11 9 5 5 11 9 7 11 14 23 19 14 16 14 11 11 12 8 4 2 1 2 3 2 2 2 4 2 6 5 4 4 4 4 6 6 8 10 6 7 8 5 3 1 1 2 2 2 4 6 8 9 12 17 21 22
13 14 14 14 14 14 15 15 15 15 15 15 14 15 14 14 14 14 14 14 14 14 14 14 14 14 14 13 13 14 14 8 4 3 3 8 15 9 11 13 14 24 17 10 12 9 9 14 12 5 4 2 1 2 3 3 2 2 3 5 5 3 3 5 4 6 7 5 4 7 9 9 9 3 1 1 1 4 6 7 6 8 13 13 12 14 16 17
13 14 14 14 14 14 15 15 15 15 15 15 14 15 15 15 14 14 13 13 13 13 14 14 13 14 13 12 10 11 8 4 2 3 7 11 16 5 14 13 16 23 13 8 11 10 11 12 7 4 4 2 1 2 2 4 3 2 4 7 4 1 4 5 4 5 6 5 4 6 8 8 7 4 1 2 4 5 5 8 7 8 13 15 14 14 13 13
13 13 13 14 14 14 14 15 15 15 15 15 15 14 14 14 14 14 14 13 13 13 14 13 13 13 12 10 7 6 3 1 5 6 11 14 15 2 17 17 17 19 12 11 14 12 9 7 5 3 3 2 3 3 3 3 3 2 6 6 4 4 4 5 4 7 6 4 6 5 4 5 7 8 4 5 8 6 5 6 8 7 10 12 13 12 9 7
13 13 13 14 14 14 14 15 15 15 15 15 15 14 14 14 13 13 13 14 13 12 14 13 13 12 11 9 4 3 3 6 12 10 14 13 9 4 20 19 17 18 13 14 13 8 6 7 5 4 4 3 3 4 3 1 1 3 6 5 4 5 6 7 7 8 6 5 8 4 4 6 6 7 3 4 8 5 4 3 9 8 8 10 9 10 11 11
12 13 13 14 14 14 14 15 15 15 15 15 15 15 14 14 13 13 13 13 13 13 13 12 12 10 10 7 2 3 0 8 12 11 12 7 1 11 22 18 16 16 14 13 12 8 6 7 6 4 4 2 4 4 3 1 1 5 6 5 4 4 6 7 7 8 8 7 6 3 7 9 6 4 3 6 7 3 2 5 9 10 10 10 11 14 12 13
12 13 13 13 13 14 14 14 15 15 15 15 15 15 15 15 14 14 13 13 12 12 12 12 11 8 7 5 3 3 4 5 7 8 6 2 6 17 21 16 17 16 12 11 12 12 7 6 6 5 4 3 4 3 3 3 2 6 6 4 5 6 6 6 6 8 9 5 1 3 10 9 4 3 4 7 4 1 4 6 8 11 12 10 11 12 10 11
12 13 13 13 14 14 14 14 15 15 15 15 15 15 15 15 15 14 13 13 12 12 12 10 10 7 5 3 4 1 6 2 4 8 10 8 9 18 18 13 18 16 10 9 11 12 7 6 6 5 5 3 3 3 2 5 4 4 5 5 7 7 6 4 6 9 7 5 3 4 10 7 3 1 3 6 3 5 6 7 7 10 11 11 11 8 8 8
12 13 14 14 14 15 15 15 15 15 15 16 16 16 16 16 15 14 13 13 12 12 10 8 8 5 3 1 4 3 5 1 2 7 10 9 7 11 12 10 16 15 9 7 9 11 6 7 8 4 1 2 2 2 2 4 3 2 3 5 7 6 6 4 6 8 4 5 5 6 7 5 2 2 5 5 4 5 7 9 9 11 10 10 10 6 7 7
13 14 14 14 15 15 16 16 16 16 16 16 17 17 18 16 16 16 15 14 13 11 8 6 5 1 2 1 5 9 6 2 3 1 1 4 6 3 7 9 11 13 11 6 6 11 8 7 9 5 2 3 2 0 2 3 1 3 2 4 8 6 6 5 5 5 2 4 3 6 4 7 1 5 7 4 6 4 6 11 10 11 9 8 7 5 5 7
14 14 15 15 16 16 16 17 17 17 17 17 17 18 19 18 18 18 17 15 12 9 6 5 3 2 1 1 8 11 9 9 11 12 13 16 14 8 7 10 10 11 13 7 3 7 11 8 6 5 2 4 1 2 1 0 1 3 1 1 5 7 6 6 3 2 0 4 3 6 3 7 7 8 7 4 9 7 7 10 9 9 9 6 5 5 5 6
14 15 15 15 16 16 16 17 17 18 17 18 18 18 19 20 20 19 17 14 11 7 5 4 3 3 2 5 13 14 12 13 16 19 19 17 12 5 7 10 10 10 12 11 3 2 11 10 2 2 1 2 1 3 4 4 3 2 2 1 3 2 5 8 4 1 1 3 3 6 2 6 9 8 5 5 7 9 9 11 11 8 8 6 5 6 5 5
14 15 15 16 16 17 17 17 18 18 18 19 18 19 21 20 19 16 14 10 6 3 3 4 5 3 0 8 13 9 7 9 13 16 17 15 10 5 7 11 12 12 11 12 6 3 7 10 2 2 2 2 2 3 4 4 3 2 1 3 3 1 5 9 6 2 1 5 4 6 2 6 8 7 4 5 6 8 9 11 12 9 8 7 6 6 5 4
15 15 15 16 17 17 17 17 18 18 18 19 18 20 21 18 14 10 7 3 3 4 6 4 5 4 1 6 4 1 4 6 8 9 8 14 13 7 7 10 9 10 9 7 7 3 4 6 1 2 1 2 2 2 2 4 4 3 1 3 3 1 2 6 6 1 1 3 4 2 1 4 6 6 4 5 6 7 7 11 12 9 8 8 6 6 6 5
15 15 15 16 17 17 17 17 17 18 18 19 19 21 16 11 8 4 2 5 6 6 7 3 2 3 4 6 4 3 4 3 3 5 3 10 15 10 7 7 4 6 7 4 5 4 1 2 1 1 1 1 2 3 1 2 4 3 2 1 3 2 2 3 4 4 4 3 4 4 0 5 8 5 3 6 6 7 7 9 11 8 8 8 6 6 6 7
15 15 16 17 17 17 17 17 17 18 18 18 19 18 9 7 7 5 9 10 7 5 3 1 0 1 4 5 3 2 3 4 6 9 7 8 13 13 6 4 6 7 5 2 2 3 1 1 1 1 1 2 3 4 3 4 3 2 1 1 3 3 2 3 4 4 6 6 4 4 2 7 10 5 3 6 6 7 6 7 8 8 9 8 7 7 6 8
16 16 16 17 18 18 18 17 17 18 18 19 17 11 4 7 7 6 8 7 5 3 1 2 3 2 3 4 3 4 7 9 9 10 6 5 10 12 4 3 6 6 3 2 0 2 2 2 3 1 2 2 4 5 6 7 6 5 4 4 3 4 4 4 4 5 3 5 6 5 4 6 9 7 5 7 8 6 5 7 8 7 7 8 7 7 7 9
16 16 17 18 18 18 18 18 17 17 18 18 14 7 4 4 4 2 1 2 4 5 4 5 7 5 7 5 3 7 11 7 4 3 2 5 10 10 3 2 4 4 2 4 2 2 4 3 2 4 5 5 7 7 7 6 5 4 3 3 4 5 6 2 3 6 2 1 7 6 5 6 8 8 7 8 8 5 7 8 8 8 8 9 10 9 9 8
17 17 17 18 18 18 18 17 16 17 17 12 9 6 1 1 2 2 3 4 9 11 11 12 12 11 13 9 2 6 7 4 2 3 5 5 10 9 1 1 4 1 2 4 3 1 4 4 6 6 8 7 6 6 6 5 3 1 2 3 4 5 6 4 4 7 3 3 6 4 3 7 8 7 7 7 8 8 11 11 10 11 11 10 11 11 9 6
17 17 18 17 18 18 17 17 18 17 12 5 6 4 1 1 1 2 1 5 9 11 13 14 10 12 17 14 10 2 3 3 6 6 7 7 7 6 3 4 5 4 1 3 3 1 1 3 6 7 8 5 5 5 6 4 3 2 2 3 5 4 4 6 5 5 1 4 5 4 2 8 8 7 6 5 8 9 10 15 14 14 13 12 12 11 10 8
17 17 17 17 18 18 17 19 17 11 5 4 5 3 2 2 4 3 1 3 8 5 9 10 7 10 12 9 9 8 4 5 5 5 8 11 5 5 5 5 6 4 2 3 4 3 2 4 6 7 7 6 4 4 7 4 1 2 3 3 4 3 1 4 5 4 2 2 5 5 4 6 6 6 5 4 5 5 4 11 12 13 15 14 14 12 10 11
17 17 17 18 18 18 18 16 8 5 7 9 10 5 1 5 7 2 2 2 6 4 6 9 7 8 7 3 10 13 4 6 6 4 10 13 4 3 6 5 5 4 3 6 7 5 5 5 3 6 6 7 4 2 6 4 2 3 5 5 4 3 4 6 4 5 5 4 3 2 4 5 4 6 6 5 5 3 1 7 9 10 12 10 9 9 9 10
17 16 17 18 18 19 18 9 3 6 14 12 6 1 3 9 8 2 3 2 4 6 4 5 4 5 5 4 12 13 2 3 7 5 10 14 8 4 3 3 4 5 6 6 7 4 7 5 5 6 3 5 5 3 4 6 3 4 5 8 8 8 8 8 3 4 5 5 3 1 3 5 4 5 6 6 5 4 2 6 11 11 10 8 8 9 8 7
17 16 17 17 17 21 15 3 4 14 15 4 3 1 6 12 7 5 3 4 3 5 3 1 1 4 6 5 7 7 3 4 9 8 10 14 12 6 3 2 1 4 6 5 4 3 4 3 6 6 4 5 4 4 5 7 4 3 5 10 11 9 8 8 3 2 0 3 3 3 2 4 5 4 5 6 4 4 4 5 10 9 9 9 8 7 7 6
16 16 17 16 16 18 9 3 11 14 5 1 2 5 11 12 2 7 2 5 3 4 1 0 0 3 4 5 8 6 2 3 2 7 10 12 10 5 4 4 1 2 4 4 1 3 2 4 5 5 5 5 4 4 6 8 7 4 6 9 9 8 7 7 4 3 3 3 4 4 4 3 4 3 4 5 3 4 5 7 9 9 9 8 6 5 5 6
16 16 16 15 14 13 8 8 12 7 2 2 6 11 14 9 4 7 3 3 3 2 1 1 1 3 1 4 7 4 3 1 2 3 8 12 9 3 4 7 6 5 4 5 4 4 3 6 6 6 5 4 5 5 7 9 5 6 6 7 7 7 7 5 5 4 2 2 5 5 2 1 5 4 3 4 3 5 6 8 9 10 8 5 4 5 5 5
17 16 15 15 15 12 9 8 8 5 5 8 10 14 13 4 5 4 4 1 3 2 3 1 1 0 3 2 5 4 3 1 1 1 4 9 6 3 4 6 6 6 4 5 6 4 2 5 8 8 5 5 7 6 9 11 6 4 5 5 3 3 3 3 5 3 1 1 5 6 2 2 5 4 2 2 3 5 6 6 6 8 6 5 5 5 6 6
17 16 15 15 15 12 7 8 11 7 6 8 12 14 9 2 4 4 1 3 3 2 2 2 1 1 3 2 3 5 3 4 2 2 4 3 1 3 2 2 6 5 1 1 3 4 2 1 4 5 5 7 6 5 8 13 8 2 5 4 5 5 4 3 2 3 2 3 7 5 3 3 3 5 3 2 3 5 5 4 5 6 6 6 6 5 6 6
18 17 16 14 13 9 5 6 7 3 3 9 14 11 3 3 4 4 3 4 3 3 4 3 2 2 3 2 4 3 3 4 2 4 4 2 2 3 2 2 3 3 2 3 3 3 3 1 1 3 5 5 4 3 4 7 5 2 3 4 3 2 3 4 4 3 2 5 7 3 3 6 2 4 3 4 5 5 5 6 6 5 5 5 4 4 5 4
20 19 18 16 13 11 9 5 3 4 8 12 11 5 4 2 1 2 4 4 2 2 4 3 3 6 6 4 4 4 3 2 2 4 5 4 4 4 3 4 4 2 2 4 3 4 3 3 4 4 4 5 5 2 3 2 2 4 3 4 3 1 2 2 3 0 3 7 5 1 3 4 3 4 4 7 8 7 6 7 5 3 3 2 2 3 4 5
22 21 18 15 13 15 14 8 7 10 12 9 5 4 6 3 2 4 4 3 1 3 3 3 6 9 7 4 2 3 3 2 3 2 2 4 5 5 3 3 6 5 1 4 2 1 3 4 3 2 3 4 7 4 2 1 3 6 5 5 4 2 2 1 3 1 3 6 3 1 1 2 2 2 4 8 8 8 7 5 2 3 4 4 4 6 7 7
23 19 15 12 12 15 13 8 7 7 6 3 3 5 5 2 3 3 2 2 3 4 4 4 7 8 4 3 3 1 1 1 2 4 2 3 4 4 3 2 4 5 3 2 2 3 2 4 3 5 2 2 7 7 6 4 4 4 4 5 5 4 4 3 4 3 3 4 2 2 0 2 2 1 4 5 5 7 3 2 5 5 6 6 6 7 6 4
20 14 11 10 9 10 9 10 9 4 1 2 5 5 4 3 3 1 1 3 3 4 6 6 4 4 4 3 4 2 1 1 1 5 3 3 4 5 4 4 4 4 4 3 2 2 3 4 7 4 1 4 5 5 4 6 3 2 2 5 3 5 5 2 3 4 2 1 1 2 1 2 2 3 5 3 5 9 7 5 7 6 7 8 8 7 4 2
16 9 6 6 4 3 3 9 9 5 2 4 5 2 3 3 2 2 1 2 2 3 7 6 3 3 4 4 3 5 3 1 2 3 1 2 3 4 3 4 4 5 5 5 3 1 2 4 7 4 2 4 6 4 4 5 4 1 2 4 4 4 7 4 2 1 3 2 1 1 1 4 2 2 5 6 8 9 8 7 6 6 7 8 8 7 5 3
15 7 2 2 2 1 3 9 11 7 3 6 4 3 3 2 3 3 1 2 2 3 3 3 2 1 2 3 3 5 5 1 1 1 1 1 1 3 3 2 3 6 7 4 2 3 3 3 6 2 4 6 3 4 2 2 5 4 3 5 2 2 4 4 2 3 4 2 3 2 1 3 1 1 4 7 7 7 7 7 5 5 7 8 8 7 6 5
12 5 2 4 2 4 7 10 10 5 4 5 2 2 2 2 2 3 2 1 2 1 2 1 2 1 1 2 3 5 4 2 2 1 2 1 1 3 3 1 2 5 7 5 2 2 3 2 6 3 5 6 4 3 2 4 1 4 4 4 4 2 1 1 2 1 1 2 3 3 2 2 2 2 4 6 5 5 5 7 7 6 7 7 7 7 6 6
6 2 3 3 3 7 9 8 5 4 5 3 1 2 2 3 3 4 3 1 0 1 0 3 2 1 2 1 3 4 4 1 1 0 2 1 2 2 2 2 2 1 3 7 5 1 2 1 5 4 3 3 5 2 1 3 3 2 3 2 2 3 4 2 2 3 3 3 1 2 3 2 3 2 4 6 6 6 4 5 7 7 7 7 7 6 5 6
2 2 2 3 5 10 8 4 2 5 4 2 3 2 2 2 4 5 4 2 1 1 2 3 2 1 3 3 3 3 2 0 2 1 1 1 1 1 1 2 2 1 1 5 5 1 2 1 4 5 5 3 2 1 2 4 2 2 3 2 0 2 2 2 1 2 3 4 3 1 1 4 4 1 4 6 6 5 3 4 6 6 7 6 6 6 6 6
2 3 2 3 7 11 5 2 2 3 2 1 2 2 2 2 2 5 5 3 3 3 3 3 3 3 3 3 3 3 1 1 1 1 1 1 1 1 2 1 1 1 2 5 3 2 2 2 3 3 4 2 4 5 3 5 5 4 4 4 4 3 4 3 0 1 2 3 4 4 2 5 4 1 3 4 3 3 3 6 6 6 6 5 4 5 5 7
3 3 3 1 10 10 3 3 1 1 2 1 2 2 2 2 2 3 4 2 2 3 1 2 3 4 4 3 3 3 1 1 1 1 1 1 2 1 3 2 3 1 3 3 1 2 3 4 2 1 2 3 7 7 3 3 4 3 2 3 3 3 5 5 3 3 2 2 2 3 1 4 3 1 2 2 4 4 5 6 7 6 6 5 6 6 5 6
4 2 3 3 11 5 5 2 3 2 1 2 2 2 2 2 2 2 2 2 1 1 1 1 3 3 3 2 2 2 2 1 1 1 1 2 1 1 5 2 3 3 3 1 1 1 2 3 3 1 4 4 6 6 3 2 4 3 2 2 2 1 3 5 5 4 4 3 2 3 0 4 2 3 4 5 6 6 6 7 8 7 6 7 7 6 6 7
3 1 2 5 9 1 4 1 2 3 2 3 3 2 3 1 1 2 2 2 1 1 1 2 2 1 2 1 0 1 2 1 2 3 1 1 1 2 4 2 3 2 0 2 2 1 1 1 3 2 3 4 5 5 5 5 4 2 2 4 3 2 4 4 2 3 3 4 4 5 2 4 0 4 5 6 8 9 8 8 8 7 7 7 7 7 8 8
2 1 2 1 4 1 1 3 2 1 2 2 3 4 4 2 2 2 2 3 2 1 1 3 3 2 2 2 2 2 2 0 1 2 2 2 2 2 5 4 1 3 2 1 2 3 2 1 3 3 3 3 2 2 3 3 3 2 2 5 6 4 3 2 3 4 3 4 3 5 4 3 3 6 6 6 8 10 11 10 9 8 8 7 7 7 8 8
3 2 1 2 2 2 1 1 3 3 1 1 1 3 2 2 4 3 2 2 2 1 1 2 3 3 2 3 3 3 4 2 1 2 3 3 3 2 4 4 3 4 5 7 7 4 3 2 2 5 5 5 5 5 5 2 1 2 5 7 7 5 4 2 4 3 5 4 2 2 4 5 6 7 7 7 9 10 10 9 9 9 8 8 7 8 8 9
3 1 2 2 2 2 1 2 3 2 1 2 2 2 2 2 4 3 1 1 2 3 1 0 3 4 2 3 2 2 4 4 3 4 3 3 3 4 6 2 5 6 5 6 6 3 5 3 2 5 4 2 3 4 4 0 3 2 4 7 8 8 6 4 4 3 5 6 1 4 5 7 6 5 7 7 8 9 9 9 8 7 7 7 7 9 11 11
2 1 2 3 1 1 1 2 2 3 2 1 1 2 3 3 3 2 3 3 3 4 2 2 5 5 4 4 0 1 4 4 4 4 3 3 2 4 7 3 6 7 5 4 4 3 5 1 0 3 3 2 3 4 3 3 5 4 5 7 8 9 8 5 3 1 4 5 5 6 8 6 4 5 7 7 8 9 9 8 7 7 7 7 8 10 12 11
2 2 0 2 2 3 1 0 2 4 3 1 1 1 1 3 4 2 2 2 4 4 3 2 6 7 6 4 2 2 2 2 2 3 3 3 2 1 3 4 4 6 6 4 3 3 4 1 1 3 3 5 6 6 5 4 4 4 7 8 7 7 8 7 4 3 4 5 7 10 10 6 4 4 6 7 7 8 8 7 8 8 8 7 9 11 11 10
2 3 1 3 3 1 1 2 3 4 2 2 2 1 1 1 3 3 2 1 1 4 3 2 7 7 4 4 4 4 1 3 2 2 2 4 4 1 2 2 3 5 5 3 2 2 3 1 0 3 3 4 6 6 6 5 5 6 8 10 9 8 8 7 5 5 5 6 9 11 9 5 3 4 7 7 6 8 10 10 10 9 7 9 11 12 11 10
2 2 2 4 3 3 2 2 3 4 2 3 1 1 1 1 2 3 3 1 3 1 3 4 7 6 3 4 4 2 2 2 4 5 4 3 4 2 2 2 3 5 5 2 2 3 3 2 0 3 3 2 5 5 6 4 5 6 8 10 10 6 5 4 3 3 2 4 10 9 5 2 3 5 7 7 8 11 12 11 11 9 9 10 11 11 11 9
2 1 2 5 3 3 2 2 3 3 1 1 2 2 2 3 4 2 1 3 1 1 4 3 3 4 3 4 4 2 3 4 7 8 6 5 5 3 2 4 4 2 2 1 2 2 3 4 2 2 2 1 3 4 5 3 3 3 4 5 6 4 1 2 3 5 4 3 6 5 4 5 6 6 8 9 9 10 9 8 8 8 9 11 10 9 9 8
Wind_Direction
345 346 345 345 344 344 344 344 345 344 345 345 345 346 345 346 345 345 343 340 338 332 330 328 327 327 326 326 326 327 327 319 315 307 279 286 304 297 261 263 186 165 147 143 152 141 128 132 139 142 136 122 57 149 163 188 98 73 98 127 217 213 194 187 189 193 223 302 313 321 353 351 321 330 317 39 34 19 19 13 6 12 23 118 136 142 147 151
344 345 344 344 343 343 344 343 343 343 344 343 344 344 343 344 343 343 342 339 338 334 332 330 329 330 328 330 330 330 326 316 308 287 270 311 344 317 237 203 179 169 153 146 158 148 138 160 146 129 113 105 335 118 163 211 129 123 117 159 230 206 207 194 186 229 272 294 305 310 343 351 314 317 324 325 342 350 18 15 71 81 82 109 131 141 147 152
344 344 344 344 343 343 343 342 342 342 343 342 341 341 341 341 340 340 339 338 337 335 333 331 331 331 331 333 332 330 322 317 309 276 274 11 354 330 202 182 181 177 166 156 165 161 157 163 149 130 88 104 185 129 166 203 172 175 120 204 241 201 224 231 213 246 258 272 302 307 330 341 303 291 325 280 232 315 254 207 136 143 152 143 145 147 152 157
343 343 343 343 342 342 341 341 341 341 341 340 340 340 339 338 338 337 336 336 334 334 333 332 333 331 334 336 333 330 325 329 303 270 356 348 343 335 183 176 181 180 172 158 167 164 146 144 138 118 93 107 285 123 167 218 193 182 155 211 229 166 250 264 248 250 264 278 289 306 325 321 300 296 38 141 240 277 239 221 209 182 166 157 158 156 158 161
343 341 343 342 342 341 340 340 339 339 339 340 341 337 336 335 335 335 334 334 332 332 331 333 335 333 338 340 339 335 338 13 286 307 354 341 343 330 172 156 167 176 172 161 161 141 125 129 118 74 86 114 163 118 212 226 159 166 238 239 239 246 285 275 267 267 268 289 302 310 317 303 305 320 243 186 234 247 231 223 220 193 169 159 159 160 164 166
342 341 343 341 341 341 339 339 338 338 337 338 338 333 333 333 333 334 333 332 331 331 332 334 336 334 339 346 347 348 16 305 290 322 334 329 339 301 160 146 157 167 163 154 148 135 117 108 107 108 98 103 157 168 235 233 152 209 265 270 253 235 259 272 277 277 277 305 301 291 299 302 321 313 265 206 230 239 258 223 178 178 171 156 155 153 147 135
342 342 342 340 341 340 339 339 337 337 336 334 333 330 331 330 331 331 330 331 329 331 332 331 336 336 340 352 354 19 79 260 283 316 320 320 338 164 158 152 157 162 158 146 140 138 116 106 126 136 113 105 166 196 227 246 111 222 260 289 263 219 227 254 266 278 288 277 267 276 318 306 294 300 290 219 244 254 278 200 146 154 153 143 129 106 97 83
342 341 341 340 339 339 338 338 336 336 333 331 330 329 329 328 328 328 328 327 325 329 330 329 336 337 338 354 23 0 290 256 290 322 320 317 22 158 161 162 165 165 161 153 147 142 121 128 160 145 121 188 178 179 204 128 7 229 245 283 274 242 238 260 276 281 284 262 257 297 294 281 254 258 291 263 267 275 199 142 139 143 137 128 107 102 108 99
341 340 339 339 338 338 337 336 336 334 331 330 328 327 327 326 326 326 325 323 323 323 326 330 331 337 339 352 62 347 263 260 326 2 9 49 151 163 164 168 174 170 161 161 153 148 149 161 184 168 154 196 175 176 192 174 252 230 227 262 262 268 272 282 286 276 282 270 211 313 282 287 274 230 278 267 245 159 139 133 143 138 128 117 112 122 124 107
339 337 338 337 337 336 336 335 334 331 330 329 326 326 325 325 324 324 322 319 319 317 321 329 327 337 328 326 77 342 274 301 33 50 57 80 139 165 168 170 177 175 160 163 163 161 165 173 178 162 150 147 166 185 155 171 216 215 211 253 252 267 282 280 282 277 293 288 218 245 271 294 326 213 270 269 187 137 128 124 137 124 116 118 126 136 120 113
337 337 336 336 337 336 336 335 332 330 329 328 326 325 324 323 322 322 320 314 311 310 314 320 322 337 331 3 115 225 271 312 99 72 72 79 101 164 183 182 182 183 167 163 187 184 168 167 158 120 168 168 162 185 186 199 216 233 240 284 277 288 293 257 268 275 289 286 220 190 259 307 13 217 245 245 163 143 136 128 128 118 114 124 134 139 118 120
337 337 335 336 336 336 336 333 331 329 328 328 326 324 323 322 323 323 316 309 305 300 299 307 310 309 19 34 205 239 261 242 237 284 315 304 323 258 219 215 204 202 192 174 209 205 192 182 160 141 220 162 122 325 215 220 244 275 258 293 295 330 323 266 257 266 195 261 205 144 295 317 264 230 254 215 139 124 130 130 127 123 122 127 136 133 118 131
336 335 335 335 336 336 336 333 330 329 328 327 325 324 324 324 325 320 309 303 297 287 278 284 279 205 70 247 240 259 269 257 262 273 274 278 286 281 234 226 229 226 217 201 201 214 209 206 167 171 182 115 192 283 180 179 351 289 269 215 310 350 324 279 282 334 202 242 179 139 288 293 260 258 267 203 141 130 134 136 129 122 126 132 142 136 132 140
334 333 333 334 335 335 334 332 329 328 327 325 325 324 325 327 324 313 302 293 280 268 261 254 216 163 141 249 268 282 278 261 258 258 260 263 264 259 224 218 225 228 225 215 212 292 218 210 86 119 199 108 206 308 350 359 10 314 298 287 353 358 284 297 303 0 325 276 137 137 227 266 273 286 259 207 151 147 152 149 140 128 131 140 149 145 147 159
332 331 331 333 334 334 333 332 329 328 327 326 325 325 328 329 320 308 297 281 259 226 195 190 185 162 12 278 280 286 261 251 256 256 251 245 231 216 217 211 216 219 221 219 219 319 211 196 63 72 248 312 64 16 343 349 4 13 311 295 347 180 264 309 300 162 222 296 69 116 215 270 277 291 247 196 161 164 157 154 150 134 136 146 156 153 147 162
329 328 330 330 331 332 331 330 330 328 327 327 326 329 332 329 320 312 300 253 166 162 165 175 197 183 284 284 288 285 241 254 272 280 253 232 225 210 194 191 202 205 205 213 208 231 183 169 138 138 214 312 108 85 10 356 342 358 54 260 299 275 279 318 311 7 180 282 9 65 219 279 286 312 279 205 177 182 159 156 152 135 144 155 161 159 152 161
327 328 330 329 329 331 330 330 330 329 329 328 329 333 336 344 351 357 66 112 133 159 160 154 195 199 264 270 277 282 276 277 295 319 285 232 225 200 156 152 152 157 166 155 169 195 173 159 195 139 48 15 141 109 54 306 297 322 15 250 262 254 254 308 300 326 20 45 355 350 81 257 278 324 281 220 189 188 169 158 151 140 155 164 166 165 163 174
326 329 328 328 329 330 330 331 331 331 331 329 333 337 350 47 44 74 104 110 114 122 142 322 118 211 271 264 277 285 299 316 307 306 291 242 215 194 160 122 121 116 118 87 123 144 140 242 83 59 345 53 121 116 155 222 203 209 235 220 281 287 246 240 259 305 4 19 348 344 329 264 279 309 259 233 209 196 172 149 149 150 161 168 174 174 174 187
326 328 328 328 329 330 330 331 333 333 333 332 338 350 57 83 65 91 105 109 107 106 194 225 173 187 267 254 267 301 313 311 296 285 259 206 187 182 162 102 112 104 99 71 154 166 144 68 66 151 230 155 177 167 179 199 163 159 179 173 220 276 261 220 236 275 347 357 319 290 267 259 275 285 255 235 223 192 137 137 152 155 164 175 181 183 184 194
325 327 328 328 329 328 329 330 331 333 333 336 346 16 78 56 36 42 60 171 202 214 226 208 193 237 284 275 295 325 322 317 287 269 212 168 155 150 132 82 84 73 125 147 190 202 128 140 203 199 181 174 203 197 177 176 142 131 163 192 220 248 269 238 243 264 197 32 288 260 248 260 266 267 242 224 219 177 141 155 164 165 175 183 187 189 190 197
324 326 327 327 327 327 327 327 329 331 330 337 3 37 88 36 40 331 294 259 238 226 239 235 210 230 256 255 297 356 349 334 282 278 255 203 142 138 174 121 109 136 227 158 160 78 104 173 219 192 179 181 189 179 155 148 136 129 206 252 264 241 261 265 246 260 196 152 265 268 275 272 267 262 246 215 204 193 174 169 171 178 184 188 190 190 188 193
323 325 325 324 325 325 325 327 328 326 325 359 41 40 217 180 57 281 284 291 267 218 225 240 226 243 251 251 257 241 59 308 291 285 231 193 150 165 200 122 142 206 241 102 122 87 77 218 214 187 181 154 107 121 128 136 162 157 178 246 266 253 284 290 271 279 157 147 258 299 314 275 280 281 266 222 211 217 192 180 179 179 183 190 191 187 182 184
321 323 324 323 325 324 325 331 333 336 4 41 7 305 227 345 331 304 138 291 285 221 212 226 218 242 247 249 227 182 149 216 252 284 184 163 163 176 159 143 163 166 126 142 162 166 206 239 212 181 159 133 108 118 120 114 155 167 181 216 258 266 322 285 291 320 317 221 256 287 306 284 304 321 304 280 263 276 210 188 186 184 188 192 190 185 182 183
320 323 323 323 326 325 330 338 351 37 16 334 307 279 217 348 342 358 139 262 288 275 224 210 199 226 240 226 177 170 188 196 193 251 175 156 144 151 163 161 143 152 191 180 165 179 225 235 169 124 133 157 179 159 130 150 265 247 215 207 234 251 217 229 278 330 324 312 249 251 329 305 332 349 327 320 317 322 173 177 188 201 201 193 184 183 186 185
321 323 323 327 329 328 335 349 52 9 339 319 291 263 30 345 344 122 133 349 289 287 267 210 206 224 212 157 166 170 176 209 203 209 165 160 157 135 173 162 128 189 207 162 147 202 248 234 131 107 116 156 175 208 178 177 220 282 236 206 210 225 229 239 278 0 356 335 288 83 15 298 320 348 323 329 340 331 295 190 192 200 200 194 185 182 181 178
321 322 325 330 331 334 343 9 341 336 329 312 159 117 336 333 337 156 134 29 302 285 306 189 185 206 194 153 164 155 90 257 221 184 161 173 171 138 148 173 118 200 188 146 147 217 252 195 156 154 152 146 161 236 225 171 164 277 240 201 206 217 230 246 238 99 66 267 289 46 105 263 308 347 323 323 327 314 297 223 203 199 196 200 193 179 167 168
320 322 326 329 335 345 352 308 322 328 323 141 178 298 323 332 346 162 123 25 307 267 243 246 147 176 195 177 167 148 155 270 204 174 180 177 169 129 148 174 135 192 160 118 180 240 175 148 156 153 140 145 164 240 222 159 140 246 228 179 184 204 220 232 190 168 234 260 318 19 117 224 296 303 294 300 299 302 277 229 213 208 205 202 185 153 145 163
319 322 324 325 332 337 319 294 310 305 236 311 310 309 325 340 140 152 79 44 273 270 90 322 189 159 142 174 180 178 213 213 77 213 191 166 164 121 159 195 179 181 163 135 195 244 153 157 173 154 137 169 197 210 185 155 164 245 214 164 168 185 196 190 157 189 252 350 312 308 109 177 277 271 298 316 303 283 255 231 217 211 209 195 159 132 133 147
319 322 321 323 324 320 306 277 268 270 289 305 313 320 329 351 134 106 62 133 258 352 63 37 167 198 33 113 218 278 318 357 46 261 141 158 183 122 162 200 163 162 182 165 200 231 188 187 178 152 153 203 215 203 167 167 204 231 165 140 107 97 118 128 137 166 91 42 263 264 171 182 279 280 287 319 290 268 253 242 222 211 201 171 150 143 144 139
319 318 318 320 317 319 318 269 262 279 303 309 319 325 333 81 99 61 60 236 279 356 15 17 31 333 32 79 268 286 286 307 333 107 107 143 193 78 115 135 102 122 191 282 233 234 273 211 151 148 181 199 198 192 179 185 196 145 115 103 62 43 42 61 86 102 101 261 259 257 184 173 275 284 246 208 257 276 275 264 234 215 197 174 166 162 155 142
316 314 314 309 302 308 311 280 280 285 312 326 329 331 359 85 66 88 194 251 286 339 348 358 19 3 358 247 256 262 232 284 328 131 139 121 98 82 65 71 83 83 19 312 289 299 330 37 177 224 211 183 163 196 222 211 196 110 82 90 81 353 19 32 3 49 145 251 264 262 163 147 181 272 278 275 278 283 268 255 249 231 208 188 174 154 142 129
315 313 307 295 281 264 247 249 278 285 307 326 332 354 88 71 21 169 242 292 325 338 337 330 327 335 322 276 230 219 192 220 238 155 154 144 143 174 174 167 168 96 339 251 257 325 300 223 242 270 236 182 167 228 305 315 162 130 106 98 104 322 27 20 304 241 214 250 257 241 139 148 202 243 281 301 299 292 263 249 253 238 203 161 72 61 65 59
314 313 305 292 269 249 246 254 266 279 299 316 337 44 82 93 221 225 278 319 329 317 315 302 314 313 309 323 293 232 191 201 209 150 133 133 148 195 213 183 166 145 180 213 190 297 295 298 282 262 274 198 165 190 253 227 167 156 150 143 143 124 84 280 270 253 260 259 263 345 145 202 254 261 301 308 309 301 270 235 186 143 125 100 79 70 68 58
316 315 305 289 268 258 259 256 250 270 299 327 57 67 94 145 232 242 298 289 270 312 323 307 313 313 315 342 321 275 135 255 183 132 120 115 140 201 235 244 180 144 123 154 166 180 189 314 254 192 250 186 171 199 201 161 151 171 165 139 145 155 149 199 222 206 252 262 289 329 149 171 198 289 306 297 319 341 338 109 104 109 111 105 94 77 69 68
323 319 300 284 271 273 262 236 229 240 279 57 66 80 138 196 250 216 260 278 293 325 317 314 327 347 340 316 311 343 91 257 94 113 136 148 165 195 197 214 202 138 120 159 218 178 153 252 254 234 214 160 186 223 158 117 121 211 134 110 154 181 153 154 186 171 189 220 306 326 251 207 214 283 317 332 15 18 24 53 70 82 88 91 91 86 77 59
330 326 297 279 272 301 251 205 194 187 163 77 73 113 187 212 218 150 211 287 312 313 318 331 15 42 340 314 325 346 338 217 92 90 145 173 187 197 190 206 196 164 150 161 209 183 127 259 275 312 308 206 202 204 156 153 182 170 129 169 216 172 126 117 188 91 75 140 247 349 303 308 317 308 333 8 29 29 27 34 55 73 78 82 89 101 109 99
334 346 356 335 344 46 155 163 159 157 112 76 99 191 223 221 184 175 233 308 279 296 1 359 335 23 349 321 311 323 327 320 61 94 190 253 230 193 187 189 174 189 189 165 209 201 146 258 279 295 275 271 227 158 119 142 145 126 179 203 189 87 94 108 152 11 48 168 267 349 245 293 333 189 329 360 16 19 25 32 41 57 76 84 80 77 77 76
325 347 31 5 42 135 137 138 140 130 81 73 101 226 227 207 194 203 243 331 289 337 57 203 267 0 40 328 285 300 320 316 329 25 164 236 252 176 170 180 168 213 214 177 198 236 144 259 288 245 228 292 347 94 23 346 93 140 174 166 110 122 190 102 134 147 107 190 289 328 293 258 190 203 326 343 347 346 11 40 42 43 67 81 78 70 58 59
313 5 21 1 123 142 133 131 127 75 67 85 193 239 225 232 253 244 243 309 306 77 101 222 234 344 337 275 249 289 323 278 243 204 151 183 231 187 159 182 160 255 219 165 165 234 111 190 284 273 241 310 1 44 260 294 337 64 117 115 71 131 166 160 143 157 160 168 239 315 333 288 223 246 313 313 324 328 343 53 54 53 67 77 80 79 68 64
312 77 2 337 148 149 140 127 73 54 77 153 198 210 233 244 269 268 250 227 202 211 215 216 221 280 290 277 245 260 312 136 167 190 205 191 198 237 264 212 157 102 93 122 133 124 66 126 248 288 323 333 330 315 206 197 173 98 130 169 125 82 133 153 83 95 131 146 168 174 301 271 251 270 308 307 325 322 321 66 64 60 70 80 89 91 92 86
41 84 345 338 153 157 138 62 40 68 104 166 205 218 264 258 275 287 269 219 197 231 224 201 216 235 249 283 274 247 300 54 142 169 222 239 116 165 287 338 115 164 87 80 99 144 120 144 197 290 341 323 250 248 206 189 185 165 175 190 174 134 124 128 282 311 102 123 158 158 199 265 269 306 315 318 356 359 25 71 69 57 62 63 64 74 91 92
75 98 323 332 158 157 91 43 5 84 132 182 227 228 283 294 270 281 287 267 203 236 262 209 226 228 221 240 254 254 344 21 245 175 185 195 134 186 291 3 64 116 119 107 206 198 140 113 112 258 260 246 257 259 222 180 172 151 169 176 147 129 122 132 191 216 105 90 144 119 133 266 274 53 59 54 74 66 63 81 79 61 50 39 38 50 64 78
110 109 347 138 162 145 44 33 320 357 186 257 288 252 274 291 272 281 302 327 277 266 331 267 236 228 222 238 259 293 347 27 321 324 209 175 119 290 294 303 95 71 72 93 267 244 103 81 71 318 295 301 300 304 337 57 87 71 11 33 81 167 145 143 172 172 134 159 143 86 75 263 293 62 82 90 91 81 72 81 83 70 52 44 48 56 57 56
127 123 46 145 178 195 28 180 282 327 271 316 348 321 304 265 239 288 297 303 300 338 332 281 260 261 265 281 290 303 312 55 36 1 355 117 82 343 327 299 140 98 83 208 205 210 233 107 96 64 359 339 336 339 346 359 30 55 342 341 351 25 84 116 128 81 114 189 160 126 210 256 179 86 86 89 91 82 67 64 69 66 56 49 46 48 51 47
99 94 20 163 198 202 86 178 165 188 277 351 7 329 330 309 273 268 248 269 266 180 265 274 276 274 290 343 19 335 322 114 99 6 24 5 317 356 5 348 100 123 151 135 90 109 135 133 121 124 153 193 222 262 266 292 327 336 343 352 2 26 49 137 127 95 151 197 138 135 193 230 139 113 102 93 87 78 65 55 53 51 48 50 52 52 53 51
111 100 349 333 0 66 103 171 110 124 231 56 33 327 344 321 303 284 206 243 280 296 224 275 309 324 338 13 26 346 335 358 53 55 39 342 312 330 346 356 40 84 91 63 51 82 100 57 80 117 143 183 197 222 245 255 24 343 338 352 356 346 340 79 112 142 183 152 95 211 192 151 140 132 115 93 77 71 63 54 52 49 45 48 55 62 63 58
114 116 154 169 342 26 27 357 63 98 201 134 104 329 326 314 312 319 341 318 316 335 340 295 9 21 346 350 17 337 336 353 20 48 26 329 336 321 308 359 45 27 58 59 28 68 96 55 50 85 89 178 210 248 277 15 92 64 359 357 354 346 355 70 116 167 155 127 137 238 175 137 133 115 91 79 75 76 68 58 55 49 48 53 57 61 62 57
117 144 160 150 128 91 37 2 80 95 69 113 118 353 336 340 354 350 327 331 340 352 15 358 2 14 333 313 111 0 349 4 11 22 12 341 351 316 310 359 44 20 40 51 12 72 103 98 19 78 65 41 23 5 16 91 111 86 49 24 5 359 12 54 93 117 122 136 176 174 144 121 93 75 70 73 85 89 80 71 65 54 54 60 61 59 56 50
96 114 293 50 104 156 167 10 106 88 59 15 0 20 349 351 3 333 281 339 348 349 44 12 328 340 339 331 105 88 11 43 15 346 359 352 323 273 333 359 15 17 43 51 21 76 101 78 64 94 68 27 13 9 27 74 106 71 42 31 20 18 31 47 51 40 76 110 133 126 111 81 51 67 81 85 93 94 86 77 67 62 64 66 63 61 55 47
116 142 170 60 71 83 42 41 73 81 42 352 9 0 276 348 345 311 277 99 21 331 11 0 313 323 345 359 64 88 135 137 138 274 332 349 327 348 32 352 333 357 26 47 15 37 84 108 136 89 65 1 356 3 12 53 94 72 38 23 18 26 34 34 35 39 53 87 105 103 95 74 55 80 85 84 89 87 82 77 71 66 67 68 68 68 63 55
114 152 135 106 68 351 0 22 62 90 36 0 21 297 295 281 296 300 291 211 162 253 320 319 315 328 10 21 39 76 244 197 182 213 222 241 270 317 22 326 332 353 3 31 15 17 73 120 147 76 82 325 344 357 347 20 78 69 36 14 4 16 34 20 8 357 349 130 121 111 110 119 112 99 82 69 72 78 77 75 76 72 64 63 65 66 64 57
97 68 65 103 84 348 0 24 37 75 52 287 234 258 278 281 295 323 317 292 224 216 276 290 320 340 358 351 345 325 283 255 231 228 210 203 237 265 281 271 275 290 296 48 45 29 95 125 133 98 115 280 327 332 328 2 50 34 12 355 332 322 0 21 358 345 348 116 130 131 139 132 127 117 95 76 69 72 69 64 67 69 67 66 63 59 56 51